Location: Huntsville
(41.2590°N, 111.7678°W)
Time: 23:36:15
(UTC+00:00)

ISS - Pass Details

Date: 06 December 2021
Orbit: 413 x 422 km, 51.6° (Epoch: 25 January)

Event Time Altitude Azimuth Distance (km) Brightness Sun altitude
Rises 01:21:50 0° 307° (NW) 2,384 0.6 -15.3°
Reaches altitude 10° 01:23:58 10° 310° (NW) 1,514 -0.5 -15.7°
Maximum altitude 01:27:21 65° 33° (NNE) 469 -3.8 -16.3°
Enters shadow 01:28:22 40° 100° (E) 640 -3.3 -16.5°
